SCP
0 0 0 0 0 0 0 0 0 0 0 0 0 0 0 0 0 0 0 0 0 0 0 0 0 0 0 0 0 0 0 0 0 0 0 0 1 1 2 2 2 2 2 2
0 0 0 0 0 0 0 0 0 0 0 0 0 0 0 0 0 0 0 0 0 0 0 0 0 0 0 0 0 0 0 0 0 0 0 0 0 1 1 1 2 2 2 2
0 0 0 0 0 0 0 0 0 0 0 0 0 0 0 0 0 0 0 0 0 0 0 0 0 0 0 0 0 0 0 0 0 0 0 0 0 0 1 1 1 2 2 2
0 0 0 0 0 0 0 0 0 0 0 0 0 0 0 0 0 0 0 0 0 0 0 0 0 0 0 0 0 0 0 0 0 0 0 0 0 0 1 1 1 1 2 2
0 0 0 0 0 0 0 0 0 0 0 0 0 0 0 0 0 0 0 0 0 0 0 0 0 0 0 0 0 0 0 0 0 0 0 0 0 0 1 1 1 1 1 1
0 0 0 0 0 0 0 0 0 0 0 0 0 0 0 0 0 0 0 0 0 0 0 0 0 0 0 0 0 0 0 0 0 0 0 0 0 0 0 1 1 1 1 1
0 0 0 0 0 0 0 0 0 0 0 0 0 0 0 0 0 0 0 0 0 0 0 0 0 0 0 0 0 0 0 0 0 0 0 0 0 0 0 0 0 0 1 1
0 0 0 0 0 0 0 0 0 0 0 0 0 0 0 0 0 0 0 0 0 0 0 0 0 0 0 0 0 0 0 0 0 0 0 0 0 0 0 0 0 0 0 0
0 0 0 0 0 0 0 0 0 0 0 0 0 0 0 0 0 0 0 0 0 0 0 0 0 0 0 0 0 0 0 0 0 0 0 0 0 0 0 0 0 0 0 0
0 0 0 0 0 0 0 0 0 0 0 0 0 0 0 0 0 0 0 0 0 0 0 0 0 0 0 0 0 0 0 0 0 0 0 0 0 0 0 0 0 0 0 0
0 0 0 0 0 0 0 0 0 0 0 0 0 0 0 0 0 0 0 0 0 0 0 0 0 0 0 0 0 0 0 0 0 0 0 0 0 0 0 0 0 0 0 0
0 0 0 0 0 0 0 0 0 0 0 0 0 0 0 0 0 0 0 0 0 0 0 0 0 0 0 0 0 0 0 0 0 0 0 0 0 0 0 0 0 0 0 0
0 0 0 0 0 0 0 0 0 0 0 0 0 0 0 0 0 0 0 0 0 0 0 0 0 0 0 0 0 0 0 0 0 0 0 0 0 0 0 0 0 0 0 0
0 0 0 0 0 0 0 0 0 0 0 0 0 0 0 0 0 0 0 0 0 0 0 0 0 0 0 0 0 0 0 0 0 0 0 0 0 0 0 0 0 0 0 0
0 0 0 0 0 0 0 0 0 0 0 0 0 0 0 0 0 0 0 0 0 0 0 0 0 0 0 0 0 0 0 0 0 0 0 0 0 0 0 0 0 0 0 0
0 0 0 0 0 0 0 0 0 0 0 0 0 0 0 0 0 0 0 0 0 0 0 0 0 0 0 0 0 0 0 0 0 0 0 0 0 0 0 0 0 0 0 0
0 0 0 0 0 0 0 0 0 0 0 0 0 0 0 0 0 0 0 0 0 0 0 0 0 0 0 0 0 0 0 0 0 0 0 0 0 0 0 0 0 0 0 0
0 0 0 0 0 0 0 0 0 0 0 0 0 0 0 0 0 0 0 0 0 0 0 0 0 0 0 0 0 0 0 0 0 0 0 0 0 0 0 0 0 0 0 0
0 0 0 0 0 0 0 0 0 0 0 0 0 0 0 0 0 0 0 0 0 0 0 0 0 0 0 0 0 0 0 0 0 0 0 0 0 0 0 0 0 0 0 0
0 0 0 0 0 0 0 0 0 0 0 0 0 0 0 0 0 0 0 0 0 0 0 0 0 0 0 0 0 0 0 0 0 0 0 0 0 0 0 0 0 0 0 0
0 0 0 0 0 0 0 0 0 0 0 0 0 0 0 0 0 0 0 0 0 0 0 0 0 0 0 0 0 0 0 0 0 0 0 0 0 0 0 0 0 0 0 0
0 0 0 0 0 0 0 0 0 0 0 0 0 0 0 0 0 0 0 0 0 0 0 0 0 0 0 0 0 0 0 0 0 0 0 0 0 0 0 0 0 0 0 0
0 0 0 0 0 0 0 0 0 0 0 0 0 0 0 0 0 0 0 0 0 0 0 0 0 0 0 0 0 0 0 0 0 0 0 0 0 0 0 0 0 0 0 0
0 0 0 0 0 0 0 0 0 0 0 0 0 0 0 0 0 0 0 0 0 0 0 0 0 0 0 0 0 0 0 0 0 0 0 0 0 0 0 0 0 0 0 0
0 0 0 0 0 0 0 0 0 0 0 0 0 0 0 0 0 0 0 0 0 0 0 0 0 0 0 0 0 0 0 0 0 0 0 0 0 0 0 0 0 0 0 0
0 0 0 0 0 0 0 0 0 0 0 0 0 0 0 0 0 0 0 0 0 0 0 0 0 0 0 0 0 0 0 0 0 0 0 0 0 0 0 0 0 0 0 0
0 0 0 0 0 0 0 0 0 0 0 0 0 0 0 0 0 0 0 0 0 0 0 0 0 0 0 0 0 0 0 0 0 0 0 0 0 0 0 0 0 0 0 0
Wind_Speed
10 8 5 4 7 8 7 8 10 9 6 7 9 11 12 13 15 16 16 14 13 12 11 11 10 9 9 10 10 9 10 11 11 11 12 14 15 14 14 13 14 13 13 12
9 3 1 7 9 6 5 6 6 4 3 6 10 10 13 15 16 18 17 17 16 16 15 15 14 13 13 12 12 11 12 12 11 10 11 12 13 14 14 14 13 13 13 13
8 1 8 4 10 9 5 4 6 5 7 11 14 14 15 18 20 19 19 20 20 20 19 18 18 17 16 16 15 14 14 14 13 13 12 12 12 12 13 13 13 13 13 13
9 9 7 9 6 7 5 3 2 4 10 14 17 18 19 20 17 18 21 23 23 21 21 21 21 20 19 19 18 17 16 16 15 15 14 13 12 12 11 10 10 11 12 13
7 10 6 6 6 9 10 10 5 10 18 20 21 22 19 16 19 23 24 23 22 23 24 23 22 21 21 20 19 19 18 17 16 16 15 14 14 13 11 9 9 10 10 11
6 9 4 7 9 10 9 8 2 17 21 22 24 21 18 21 23 24 24 22 23 23 24 23 22 21 21 21 20 20 19 18 17 16 16 16 15 14 12 10 9 9 8 9
7 7 6 7 10 12 11 12 18 20 22 23 22 21 24 26 26 25 25 25 24 23 21 20 21 21 22 21 21 20 19 18 17 16 16 16 15 13 12 11 10 9 8 7
7 6 4 8 11 10 14 18 20 22 22 23 24 25 26 26 26 26 26 25 25 22 21 20 20 21 21 21 20 19 18 18 17 16 16 14 14 13 12 11 11 10 7 5
6 5 4 8 11 14 16 19 20 20 23 24 26 27 28 27 26 25 25 24 22 22 22 20 18 18 21 20 20 19 19 18 17 17 15 14 14 13 12 11 10 8 6 5
5 4 8 14 14 15 17 20 21 22 24 25 27 28 28 26 25 25 24 23 21 22 21 20 19 20 20 20 19 18 18 17 15 15 15 15 12 12 12 11 10 7 6 5
8 7 12 11 16 19 19 20 22 22 24 25 27 27 28 26 25 24 23 22 20 20 20 22 21 20 20 19 19 18 17 15 14 13 13 13 12 11 11 10 7 6 5 4
7 11 15 19 19 20 20 21 23 25 26 24 25 27 27 25 24 24 23 22 22 22 22 22 22 21 19 18 18 17 15 14 11 10 10 11 11 11 11 10 6 6 3 4
11 15 17 20 20 21 20 23 24 25 26 26 24 25 27 26 24 24 24 24 23 22 22 22 21 21 19 18 17 16 14 13 10 9 10 10 10 10 9 10 8 8 8 7
12 14 18 19 20 20 22 24 24 25 25 25 25 25 25 25 25 25 24 23 23 23 22 21 20 19 18 16 15 15 14 13 11 9 10 10 10 10 9 9 9 8 9 10
13 15 17 19 20 21 23 23 25 24 25 25 25 25 25 26 26 25 24 23 22 22 22 20 19 18 16 15 14 13 10 8 9 9 10 10 10 10 9 9 7 5 5 7
15 16 17 19 21 23 24 25 25 26 26 26 26 26 26 26 25 25 24 22 22 22 21 19 17 15 14 13 11 8 7 9 10 8 8 9 9 10 9 8 6 5 5 6
16 17 19 20 22 23 24 24 24 25 26 26 27 27 26 26 25 24 24 22 22 21 20 16 14 13 12 10 7 5 4 6 11 9 8 8 8 9 8 7 6 5 5 7
14 16 18 20 21 23 24 24 24 25 25 25 25 25 25 25 25 25 25 23 22 20 16 12 10 11 10 8 5 3 3 4 6 7 7 7 7 7 7 6 5 5 4 7
15 17 18 19 20 21 22 22 23 24 23 23 23 24 24 24 24 24 24 22 20 17 13 9 9 9 7 4 3 1 2 4 5 5 6 6 7 6 5 5 4 4 5 8
14 16 18 19 20 20 20 21 22 21 21 22 22 23 24 24 24 24 23 19 14 13 13 10 8 6 4 1 2 1 3 4 4 5 5 6 5 4 4 4 4 5 6 9
15 16 18 18 19 20 19 20 20 21 21 21 22 22 23 24 24 22 20 16 16 16 13 8 4 3 2 2 2 1 2 3 4 4 4 4 3 3 3 4 5 6 7 9
14 14 16 17 18 18 18 18 18 20 21 21 22 22 22 22 23 21 19 14 16 18 11 5 2 2 2 3 1 1 1 1 2 2 2 2 2 3 4 4 5 6 8 10
12 13 14 16 17 17 18 17 19 19 20 21 21 21 20 20 16 16 17 16 15 18 10 5 4 1 2 3 1 1 1 1 1 1 2 2 3 3 4 5 6 7 9 11
11 12 13 14 15 15 16 18 18 17 19 19 18 19 18 16 15 14 14 18 20 18 10 8 6 2 2 1 1 1 1 0 1 1 2 2 3 4 5 7 7 9 10 12
10 11 11 13 13 12 14 16 16 17 18 16 19 20 16 12 14 15 15 17 20 16 11 10 8 5 2 2 1 0 0 1 1 1 2 2 4 5 6 7 9 10 10 10
9 9 8 10 10 10 11 11 12 13 14 15 16 15 15 14 15 14 13 16 20 17 14 11 11 8 6 5 4 3 3 3 3 2 3 4 6 7 8 8 11 9 9 9
8 7 6 8 8 10 10 11 12 13 13 14 15 15 15 15 14 15 16 14 13 13 12 12 11 10 10 9 7 6 5 4 4 4 5 5 6 7 8 10 8 8 8 8
Wind_Direction
281 294 301 349 358 353 340 338 323 352 22 28 356 335 320 313 310 309 309 309 308 304 302 300 300 300 299 299 299 301 302 301 302 308 312 313 316 315 309 293 274 258 247 242
273 268 154 76 31 24 27 4 353 347 52 5 324 304 294 295 299 301 303 305 304 300 298 297 298 296 293 289 286 281 279 279 278 281 288 295 301 306 305 298 284 266 250 242
288 265 230 107 24 9 18 2 346 351 338 319 310 307 308 307 304 304 309 311 309 307 304 303 301 299 293 290 287 284 279 277 274 268 267 271 280 287 294 298 293 276 255 242
294 287 279 79 50 14 338 284 265 303 313 316 313 313 309 302 310 317 316 312 309 306 303 301 299 298 296 292 289 286 283 281 280 274 268 264 266 272 281 292 295 287 268 249
312 304 111 113 28 354 316 288 241 303 321 321 320 311 303 322 328 316 310 308 306 304 302 301 299 296 293 291 289 286 284 283 282 279 274 270 268 269 274 283 291 291 284 265
331 309 341 66 8 330 289 268 356 325 321 321 318 311 316 324 315 310 309 306 304 302 301 298 297 297 293 291 287 284 283 282 281 280 276 272 270 269 270 275 280 286 285 277
327 312 75 30 338 321 305 327 330 319 317 315 312 308 309 312 312 310 307 305 305 303 301 300 299 295 290 287 285 285 284 281 277 276 273 267 263 261 261 264 275 281 279 272
327 325 52 7 333 332 315 314 314 314 313 311 308 307 309 310 309 309 308 307 307 305 302 301 299 295 290 286 286 284 281 277 273 271 269 266 256 252 253 259 264 267 264 258
342 348 3 330 314 311 313 313 314 313 311 310 309 309 310 309 308 307 307 306 307 305 302 300 297 294 289 288 287 284 279 275 272 268 263 261 260 252 247 243 251 261 257 245
292 287 315 312 308 318 321 316 312 310 310 310 308 308 309 308 308 307 307 307 307 304 301 298 295 291 287 286 284 280 276 272 267 264 258 251 247 246 244 243 243 249 252 240
280 307 311 307 324 326 319 313 310 310 309 309 309 308 309 308 307 308 307 306 305 301 298 296 294 290 287 285 283 278 274 268 263 259 255 254 247 243 245 246 250 258 268 245
319 326 313 314 322 319 315 314 314 313 311 311 309 308 308 307 307 307 306 307 305 301 299 298 295 291 287 284 281 276 271 263 255 250 248 246 243 233 218 232 183 189 232 264
302 312 311 311 312 316 316 315 314 313 312 311 310 309 309 308 307 306 307 306 304 302 299 296 294 293 291 288 284 276 266 258 248 240 242 242 240 233 215 198 195 197 205 217
309 313 310 313 315 316 316 316 314 312 311 311 312 311 310 309 308 309 308 306 303 301 298 296 295 294 294 294 288 276 264 252 242 233 232 234 235 230 220 203 188 194 199 204
318 317 311 313 314 318 319 318 316 315 315 315 315 314 314 313 312 310 308 305 303 301 300 300 298 298 301 297 289 279 264 244 231 227 225 226 228 225 219 210 199 189 170 166
315 313 316 318 320 321 321 321 319 318 318 318 318 319 318 315 312 308 306 306 306 305 304 301 300 300 302 299 293 280 258 232 224 222 222 220 218 216 210 197 190 190 174 154
316 321 324 324 324 323 322 321 320 319 319 320 322 322 320 315 311 308 308 308 306 303 302 299 301 305 305 302 295 276 245 214 209 217 220 216 210 208 201 188 183 183 171 159
317 319 322 324 323 322 321 322 322 321 322 323 325 322 317 314 312 311 311 311 309 307 306 303 307 311 307 309 303 269 228 207 202 206 206 207 205 199 189 182 182 181 167 162
320 321 323 323 324 321 321 321 322 322 324 326 324 319 315 313 314 314 315 315 316 316 317 314 308 302 301 322 318 247 207 190 187 191 191 187 201 194 185 182 181 185 180 168
320 322 323 324 325 325 323 324 323 322 326 326 320 317 318 320 321 321 321 320 321 322 321 319 314 314 315 28 311 208 173 173 180 181 182 186 189 186 185 190 193 189 181 175
324 325 326 326 325 325 326 326 324 325 327 325 323 322 322 323 325 326 325 327 331 334 331 322 313 327 3 27 270 203 157 171 179 176 173 175 184 195 206 203 193 188 179 179
325 325 325 325 325 326 327 326 328 329 327 327 326 326 327 328 329 329 329 332 332 334 336 337 334 10 3 306 294 76 109 145 163 162 163 170 195 219 205 184 180 176 177 179
323 324 324 325 325 323 323 329 334 332 329 329 329 332 333 330 330 332 333 334 336 339 347 1 7 13 289 274 322 6 88 120 142 151 159 186 200 187 166 163 167 169 167 167
321 324 323 323 323 322 328 333 333 331 329 331 334 338 337 333 333 336 332 331 340 345 3 13 18 27 258 286 309 303 295 191 154 146 163 180 170 156 153 155 155 153 155 160
321 322 322 325 325 329 329 330 332 333 335 337 339 341 341 338 336 335 336 341 348 354 8 20 19 15 24 32 24 332 350 48 54 99 146 140 136 136 138 138 141 143 148 153
320 318 323 318 322 325 329 334 333 335 337 339 339 340 341 342 342 342 343 346 354 359 7 13 18 20 29 36 43 51 76 106 126 131 116 119 119 119 121 126 131 132 135 139
311 318 319 324 337 339 336 334 333 335 339 343 336 339 343 345 346 346 349 352 357 1 5 8 11 15 20 25 33 43 57 75 94 106 110 111 111 114 120 121 119 122 127 131